sat.trackr.live / text

‹ back to catalog

STARLINK-2542

NORAD 48292 · 2021-036S

PAYLOAD ACTIVE UNKNOWN

§ Identity

Operator
Country
US
Launch date
2021-04-29
Launch site
AFETR
Launch vehicle
Mass (kg)
RCS (m²)

Purposes: comms

External: N2YO · Heavens-Above · Gunter

§ Orbital elements

Epoch: 2026-09-19T16:03:20.744640Z

Period
94.01 min
Inclination
53.1595°
Eccentricity
0.0001393
Mean motion
15.31697469 rev/d
Perigee alt
469.8 km
Apogee alt
471.7 km
Semi-major
6,848.9 km
B*
-2.7795e-6
RAAN
252.5044°
Arg perigee
93.1215°
Mean anomaly
266.9946°
Rev number
29,813

§ Raw data

STARLINK-25421 48292U 21036S   26262.66899010 -.00000451  00000+0 -27795-5 0  99902 48292  53.1595 252.5044 0001393  93.1215 266.9946 15.31697469298130

JSON: /api/v1/satellites/48292 · /tle

For live sub-satellite position, see the globe view (requires WebGL).

§ Visibility from observer

Set your observer location to see the next 7 days of passes ≥ 10°. The values pass through the URL so the page stays shareable.

No JS? Fill the form by hand. The geolocation button needs JavaScript.